This demonstration page uses our WeatherBlox Daily Observations layout. Learn more.

39.92423, -83.80882

Hourly Observations for June 29, 2020

Temp ( °F °C ) Dew Point ( °F °C ) Humidity (%) Winds ( mph kmh ) Pressure ( in mb ) Visibility ( mi km ) Precip ( " mm )
12:56 am 00:56 Partly Cloudy 71 21.7 71 21.7 100 100 NE 6 9 29.91 1013 10 16.0934 0 0
1:56 am 01:56 Mostly Cloudy 71 21.7 71 21.7 100 100 Calm 29.91 1013 10 16.0934 0 0
2:56 am 02:56 Mostly Cloudy 69 20.6 69 20.6 100 100 Calm 29.91 1013 9 14.48406 0 0
3:56 am 03:56 Clear 68 20 68 20 100 100 Calm 29.9 1013 8 12.87472 0 0
4:56 am 04:56 Clear 68 20 68 20 100 100 Calm 29.9 1013 7 11.26538 0 0
5:56 am 05:56 Clear with Mist and Fog 67 19.4 67 19.4 100 100 SW 3 6 29.92 1013 4 6.43736 0 0
6:48 am 06:48 Sunny with Mist and Fog 68 20 68 20 100 100 Calm 29.93 1014 2.5 4.02335 0 0
6:56 am 06:56 Sunny with Mist and Fog 68 20 68 20 100 100 NNE 3 6 29.95 1014 2.5 4.02335 0 0
7:05 am 07:05 Partly Cloudy with Mist and Fog 68 20 68 20 100 100 Calm 29.94 1014 3 4.82802 0 0
7:56 am 07:56 Sunny with Mist and Fog 72 22.2 72 22.2 100 100 Calm 29.97 1015 6 9.65604 0 0
8:56 am 08:56 Sunny 76 24.4 72 22.2 88 88 ESE 3 6 29.97 1015 10 16.0934 0 0
9:56 am 09:56 Sunny 79 26.1 73 22.8 82 82 S 6 9 29.97 1015 10 16.0934 0 0
10:56 am 10:56 Sunny 81 27.2 71 21.7 72 72 VRB 3 6 29.97 1015 10 16.0934 0 0
11:56 am 11:56 Partly Cloudy 84 28.9 72 22.2 67 67 VRB 3 6 29.98 1015 10 16.0934 0 0
12:56 pm 12:56 Mostly Cloudy 84 28.9 71 21.7 65 65 Calm 29.97 1015 10 16.0934 0 0
1:56 pm 13:56 Cloudy 84 28.9 70 21.1 63 63 VRB 3 6 29.96 1015 10 16.0934 0 0
2:56 pm 14:56 Mostly Cloudy 86 30 71 21.7 61 61 SW 5 7 29.95 1014 10 16.0934 0 0
3:56 pm 15:56 Cloudy 87 30.6 72 22.2 61 61 SW 8 13 29.93 1014 10 16.0934 0 0
4:56 pm 16:56 Mostly Cloudy 88 31.1 73 22.8 61 61 WNW 9 15 29.92 1013 10 16.0934 0 0
5:56 pm 17:56 Cloudy with Nearby Thunderstorms 84 28.9 72 22.2 67 67 SE 5 7 29.93 1013 10 16.0934 0 0
6:17 pm 18:17 Cloudy 82 28 73 23 74 74 NE 9 15 29.88 1012 10 16.0934 0 0
6:56 pm 18:56 Cloudy 80 26.7 73 22.8 79 79 W 8 13 29.93 1014 10 16.0934 0.001 0.001
7:03 pm 19:03 Cloudy with Thunderstorms 79 26 72 22 79 79 W 10 17 29.9 1013 10 16.0934 0 0
7:18 pm 19:18 Cloudy with Light Rain 77 25 72 22 83 83 Calm 29.91 1013 10 16.0934 0.001 0.001
7:56 pm 19:56 Cloudy 77 25 73 22.8 88 88 Calm 29.94 1014 10 16.0934 0.001 0.001
8:36 pm 20:36 Mostly Cloudy with Nearby Thunderstorms 77 25 73 23 89 89 E 3 6 29.92 1013 10 16.0934 0 0
8:56 pm 20:56 Mostly Cloudy 77 25 75 23.9 94 94 NNE 3 6 29.94 1014 10 16.0934 0 0
9:06 pm 21:06 Partly Cloudy with Nearby Thunderstorms 77 25 73 23 89 89 Calm 29.92 1013 10 16.0934 0 0
9:21 pm 21:21 Clear 75 24 73 23 94 94 SE 5 7 29.92 1013 10 16.0934 0 0
9:56 pm 21:56 Clear 74 23.3 71 21.7 91 91 SSE 8 13 29.94 1014 10 16.0934 0 0
10:56 pm 22:56 Cloudy 73 22.8 72 22.2 96 96 ESE 6 9 29.96 1015 10 16.0934 0 0
11:56 pm 23:56 Mostly Clear 72 22.2 72 22.2 100 100 SE 3 6 29.96 1014 10 16.0934 0 0

Powered by AerisWeather